JAL524 RJCC-RJTT

Flight info

Callsign JAL524
Flight time 1h 20m
Altitude 40000
Route TOBBY Y10 GODIN
Aircraft A359/H-SDE2E3GHIJ3J4J5LM1ORWXY/LB1D1

Departure

Time 2026-05-01 10:43
Airport New Chitose Airport (RJCC)

Arrival

Time 2026-05-01 12:03
Airport Tokyo Haneda International Airport (RJTT)
Time Latitude Longitude Altitude Speed Heading
2026-05-01 10:16 42.78487 141.68115 96 ft 0 kts 324°
2026-05-01 10:32 42.78475 141.68127 64 ft 4 kts 324°
2026-05-01 10:32 42.78454 141.68147 65 ft 2 kts 324°
2026-05-01 10:32 42.78410 141.68163 67 ft 4 kts 28°
2026-05-01 10:33 42.78380 141.68108 67 ft 4 kts 65°
2026-05-01 10:33 42.78377 141.68099 67 ft 0 kts 65°
2026-05-01 10:37 42.78407 141.68172 68 ft 13 kts 57°
2026-05-01 10:37 42.78459 141.68268 67 ft 13 kts 52°
2026-05-01 10:38 42.78470 141.68379 73 ft 12 kts 112°
2026-05-01 10:38 42.78428 141.68474 73 ft 12 kts 117°
2026-05-01 10:38 42.78408 141.68578 73 ft 11 kts 93°
2026-05-01 10:38 42.78448 141.68650 73 ft 10 kts 17°
2026-05-01 10:39 42.78524 141.68641 72 ft 12 kts 352°
2026-05-01 10:39 42.78615 141.68624 73 ft 14 kts 351°
2026-05-01 10:39 42.78713 141.68607 75 ft 12 kts 353°
2026-05-01 10:39 42.78719 141.68606 74 ft 0 kts 353°
2026-05-01 10:40 42.78725 141.68605 72 ft 3 kts 353°
2026-05-01 10:40 42.78750 141.68601 74 ft 4 kts 354°
2026-05-01 10:40 42.78780 141.68607 75 ft 4 kts 18°
2026-05-01 10:40 42.78800 141.68628 76 ft 3 kts 47°
2026-05-01 10:41 42.78808 141.68655 78 ft 5 kts 75°
2026-05-01 10:41 42.78814 141.68685 89 ft 0 kts 76°
2026-05-01 10:41 42.78815 141.68753 92 ft 4 kts 100°
2026-05-01 10:42 42.78778 141.68817 95 ft 13 kts 153°
2026-05-01 10:42 42.78719 141.68835 96 ft 0 kts 172°
2026-05-01 10:42 42.78699 141.68839 67 ft 16 kts 172°
2026-05-01 10:42 42.78240 141.68928 66 ft 117 kts 172°
2026-05-01 10:43 42.77179 141.69102 473 ft 170 kts 169°
2026-05-01 10:43 42.75977 141.69344 1629 ft 186 kts 165°
2026-05-01 10:43 42.74665 141.69624 2749 ft 193 kts 167°
2026-05-01 10:43 42.73299 141.69902 3420 ft 206 kts 168°
2026-05-01 10:44 42.71852 141.70193 4094 ft 218 kts 169°
2026-05-01 10:44 42.70334 141.70495 4912 ft 223 kts 169°
2026-05-01 10:44 42.68764 141.70808 5647 ft 235 kts 170°
2026-05-01 10:44 42.67125 141.71136 6530 ft 237 kts 170°
2026-05-01 10:45 42.65487 141.71460 7500 ft 240 kts 170°
2026-05-01 10:45 42.63815 141.71793 8385 ft 246 kts 170°
2026-05-01 10:45 42.62094 141.72057 9295 ft 252 kts 174°
2026-05-01 10:45 42.60319 141.72183 10134 ft 259 kts 175°
2026-05-01 10:46 42.58490 141.72285 10674 ft 277 kts 176°
2026-05-01 10:46 42.56471 141.72396 10930 ft 305 kts 176°
2026-05-01 10:46 42.54276 141.72500 10992 ft 324 kts 178°
2026-05-01 10:46 42.51976 141.72320 11525 ft 334 kts 183°
2026-05-01 10:47 42.49664 141.72025 12518 ft 334 kts 184°
2026-05-01 10:47 42.47339 141.71678 13348 ft 339 kts 185°
2026-05-01 10:47 42.44978 141.71295 14089 ft 344 kts 186°
2026-05-01 10:47 42.42595 141.70892 14841 ft 347 kts 186°
2026-05-01 10:48 42.40192 141.70482 15666 ft 349 kts 187°
2026-05-01 10:48 42.37809 141.70076 16452 ft 351 kts 187°
2026-05-01 10:48 42.35377 141.69665 17216 ft 354 kts 187°
2026-05-01 10:48 42.32913 141.69252 17834 ft 362 kts 187°
2026-05-01 10:49 42.30399 141.68833 18464 ft 365 kts 187°
2026-05-01 10:49 42.27866 141.68412 19069 ft 369 kts 187°
2026-05-01 10:49 42.25302 141.67987 19689 ft 373 kts 187°
2026-05-01 10:49 42.22712 141.67559 20301 ft 377 kts 187°
2026-05-01 10:50 42.20088 141.67125 20918 ft 382 kts 187°
2026-05-01 10:50 42.17474 141.66693 21567 ft 385 kts 187°
2026-05-01 10:50 42.14805 141.66252 22244 ft 388 kts 187°
2026-05-01 10:50 42.12099 141.65806 22841 ft 394 kts 187°
2026-05-01 10:51 42.09406 141.65362 23754 ft 386 kts 187°
2026-05-01 10:51 42.06760 141.64924 24630 ft 381 kts 187°
2026-05-01 10:51 42.04126 141.64490 25275 ft 382 kts 188°
2026-05-01 10:51 42.01478 141.64055 25844 ft 385 kts 188°
2026-05-01 10:52 41.98810 141.63617 26409 ft 387 kts 188°
2026-05-01 10:52 41.96127 141.63177 26995 ft 390 kts 188°
2026-05-01 10:52 41.93458 141.62739 27547 ft 393 kts 188°
2026-05-01 10:52 41.90735 141.62293 28079 ft 396 kts 189°
2026-05-01 10:53 41.87974 141.61838 28497 ft 403 kts 190°
2026-05-01 10:53 41.85164 141.61374 28773 ft 412 kts 190°
2026-05-01 10:53 41.82288 141.60900 28999 ft 422 kts 189°
2026-05-01 10:53 41.79351 141.60419 29378 ft 428 kts 189°
2026-05-01 10:54 41.76388 141.59937 29859 ft 430 kts 190°
2026-05-01 10:54 41.73425 141.59458 30500 ft 427 kts 190°
2026-05-01 10:54 41.70506 141.58989 31380 ft 418 kts 190°
2026-05-01 10:54 41.67690 141.58538 32290 ft 408 kts 190°
2026-05-01 10:55 41.64934 141.58097 33481 ft 390 kts 190°
2026-05-01 10:55 41.62301 141.57677 34548 ft 375 kts 190°
2026-05-01 10:55 41.59722 141.57259 35021 ft 374 kts 190°
2026-05-01 10:55 41.57124 141.56830 35166 ft 379 kts 190°
2026-05-01 10:56 41.54488 141.56395 35346 ft 384 kts 190°
2026-05-01 10:56 41.51834 141.55959 35667 ft 385 kts 190°
2026-05-01 10:56 41.49181 141.55528 36046 ft 383 kts 190°
2026-05-01 10:56 41.46543 141.55102 36418 ft 381 kts 190°
2026-05-01 10:57 41.43951 141.54685 36754 ft 379 kts 189°
2026-05-01 10:57 41.41355 141.54269 37258 ft 374 kts 189°
2026-05-01 10:57 41.38774 141.53855 37632 ft 372 kts 189°
2026-05-01 10:57 41.36206 141.53441 37929 ft 372 kts 189°
2026-05-01 10:58 41.33626 141.53023 38051 ft 375 kts 189°
2026-05-01 10:58 41.28408 141.52181 38379 ft 378 kts 189°
2026-05-01 10:58 41.25791 141.51760 38526 ft 380 kts 189°
2026-05-01 10:59 41.23163 141.51338 38667 ft 381 kts 189°
2026-05-01 10:59 41.20563 141.50921 38821 ft 381 kts 189°
2026-05-01 10:59 41.17926 141.50499 39023 ft 381 kts 189°
2026-05-01 10:59 41.15290 141.50077 39153 ft 383 kts 189°
2026-05-01 11:00 41.12635 141.49652 39291 ft 385 kts 189°
2026-05-01 11:00 41.09969 141.49223 39413 ft 387 kts 189°
2026-05-01 11:00 41.07279 141.48791 39466 ft 391 kts 189°
2026-05-01 11:01 41.01872 141.47931 39469 ft 390 kts 189°
2026-05-01 11:01 40.96520 141.47083 39462 ft 390 kts 189°
2026-05-01 11:02 40.91138 141.46227 39458 ft 390 kts 189°
2026-05-01 11:02 40.85752 141.45371 39454 ft 390 kts 189°
2026-05-01 11:03 40.80354 141.44515 39448 ft 392 kts 189°
2026-05-01 11:03 40.74971 141.43665 39464 ft 392 kts 189°
2026-05-01 11:04 40.69561 141.42811 39474 ft 391 kts 189°
2026-05-01 11:04 40.64157 141.41958 39473 ft 391 kts 189°
2026-05-01 11:05 40.58751 141.41107 39423 ft 391 kts 189°
2026-05-01 11:05 40.53390 141.40264 39410 ft 390 kts 189°
2026-05-01 11:06 40.48010 141.39420 39417 ft 389 kts 189°
2026-05-01 11:06 40.43619 141.38733 39413 ft 389 kts 189°
2026-05-01 11:07 40.35545 141.37469 39404 ft 391 kts 189°
2026-05-01 11:07 40.30177 141.36631 39397 ft 390 kts 189°
2026-05-01 11:08 40.24795 141.35796 39404 ft 389 kts 189°
2026-05-01 11:09 40.16729 141.34542 39415 ft 389 kts 189°
2026-05-01 11:09 40.11337 141.33701 39397 ft 392 kts 188°
2026-05-01 11:10 40.03253 141.32452 39393 ft 392 kts 188°
2026-05-01 11:10 39.97903 141.31173 39387 ft 391 kts 194°
2026-05-01 11:11 39.92614 141.29483 39391 ft 392 kts 194°
2026-05-01 11:11 39.87329 141.27728 39395 ft 398 kts 194°
2026-05-01 11:12 39.81897 141.25929 39385 ft 407 kts 194°
2026-05-01 11:12 39.76388 141.24117 39387 ft 409 kts 194°
2026-05-01 11:13 39.70870 141.22310 39401 ft 411 kts 194°
2026-05-01 11:13 39.65297 141.20491 39389 ft 413 kts 194°
2026-05-01 11:14 39.59770 141.18692 39404 ft 411 kts 194°
2026-05-01 11:14 39.54234 141.16892 39411 ft 410 kts 194°
2026-05-01 11:15 39.48678 141.15086 39418 ft 415 kts 194°
2026-05-01 11:15 39.43081 141.13269 39393 ft 419 kts 194°
2026-05-01 11:16 39.37446 141.11528 39386 ft 415 kts 193°
2026-05-01 11:16 39.31829 141.09855 39412 ft 414 kts 193°
2026-05-01 11:17 39.26172 141.08166 39383 ft 421 kts 194°
2026-05-01 11:17 39.20442 141.06445 39374 ft 423 kts 194°
2026-05-01 11:18 39.14779 141.04743 39384 ft 419 kts 194°
2026-05-01 11:18 39.09111 141.03044 39380 ft 420 kts 194°
2026-05-01 11:19 39.03379 141.01327 39382 ft 425 kts 194°
2026-05-01 11:19 38.97606 140.99601 39379 ft 425 kts 194°
2026-05-01 11:20 38.91912 140.97902 39386 ft 421 kts 194°
2026-05-01 11:20 38.86181 140.96194 39393 ft 426 kts 194°
2026-05-01 11:21 38.80387 140.94470 39383 ft 429 kts 194°
2026-05-01 11:21 38.74575 140.92747 39385 ft 427 kts 194°
2026-05-01 11:22 38.68805 140.91039 39389 ft 426 kts 194°
2026-05-01 11:22 38.63028 140.89327 39385 ft 431 kts 194°
2026-05-01 11:23 38.57172 140.87596 39390 ft 432 kts 194°
2026-05-01 11:23 38.51319 140.85876 39386 ft 429 kts 194°
2026-05-01 11:24 38.45529 140.84169 39390 ft 427 kts 194°
2026-05-01 11:25 38.36904 140.81628 39382 ft 426 kts 194°
2026-05-01 11:25 38.28247 140.79091 39386 ft 426 kts 194°
2026-05-01 11:26 38.19586 140.76564 39384 ft 428 kts 194°
2026-05-01 11:27 38.13776 140.74867 39393 ft 429 kts 194°
2026-05-01 11:27 38.07963 140.73169 39387 ft 429 kts 194°
2026-05-01 11:28 38.02133 140.71472 39383 ft 431 kts 194°
2026-05-01 11:28 37.96323 140.69786 39398 ft 431 kts 194°
2026-05-01 11:29 37.87524 140.67233 39396 ft 437 kts 195°
2026-05-01 11:30 37.78542 140.64638 39395 ft 444 kts 194°
2026-05-01 11:30 37.72512 140.62904 39406 ft 444 kts 194°
2026-05-01 11:31 37.66504 140.61173 39395 ft 446 kts 195°
2026-05-01 11:31 37.60460 140.59431 39408 ft 446 kts 195°
2026-05-01 11:32 37.54412 140.57693 39187 ft 442 kts 195°
2026-05-01 11:32 37.51421 140.56834 38499 ft 442 kts 194°
2026-05-01 11:32 37.48419 140.55973 37692 ft 442 kts 194°
2026-05-01 11:32 37.45427 140.55115 36854 ft 440 kts 194°
2026-05-01 11:33 37.42454 140.54262 36052 ft 437 kts 193°
2026-05-01 11:33 37.39536 140.53426 35261 ft 434 kts 193°
2026-05-01 11:33 37.36601 140.52586 34466 ft 430 kts 192°
2026-05-01 11:33 37.33723 140.51763 33588 ft 422 kts 192°
2026-05-01 11:34 37.30888 140.50951 32661 ft 412 kts 192°
2026-05-01 11:34 37.28098 140.50154 31821 ft 411 kts 192°
2026-05-01 11:34 37.25307 140.49363 30992 ft 412 kts 191°
2026-05-01 11:34 37.22500 140.48572 30094 ft 415 kts 191°
2026-05-01 11:35 37.19671 140.47772 29155 ft 418 kts 191°
2026-05-01 11:35 37.16846 140.46972 28503 ft 413 kts 191°
2026-05-01 11:35 37.14105 140.46195 27907 ft 407 kts 192°
2026-05-01 11:35 37.11357 140.45413 27265 ft 402 kts 192°
2026-05-01 11:36 37.08642 140.44640 26640 ft 398 kts 192°
2026-05-01 11:36 37.05955 140.43878 26023 ft 394 kts 192°
2026-05-01 11:36 37.03291 140.43123 25403 ft 391 kts 192°
2026-05-01 11:36 37.00650 140.42375 24789 ft 388 kts 192°
2026-05-01 11:37 36.98026 140.41635 24197 ft 386 kts 193°
2026-05-01 11:37 36.95402 140.40896 23571 ft 387 kts 193°
2026-05-01 11:37 36.92782 140.40157 22935 ft 386 kts 193°
2026-05-01 11:37 36.90169 140.39424 22234 ft 384 kts 193°
2026-05-01 11:38 36.87608 140.38703 21616 ft 381 kts 193°
2026-05-01 11:38 36.85032 140.37975 20980 ft 378 kts 193°
2026-05-01 11:38 36.82467 140.37250 20348 ft 379 kts 193°
2026-05-01 11:38 36.79895 140.36524 19721 ft 379 kts 193°
2026-05-01 11:39 36.77327 140.35801 19082 ft 378 kts 193°
2026-05-01 11:39 36.74762 140.35081 18430 ft 378 kts 193°
2026-05-01 11:39 36.72178 140.34391 17770 ft 381 kts 192°
2026-05-01 11:39 36.69561 140.33828 17023 ft 382 kts 190°
2026-05-01 11:40 36.66977 140.33341 16343 ft 380 kts 189°
2026-05-01 11:40 36.64362 140.32868 15665 ft 379 kts 189°
2026-05-01 11:40 36.61760 140.32393 15113 ft 375 kts 189°
2026-05-01 11:40 36.59170 140.31900 14916 ft 378 kts 189°
2026-05-01 11:41 36.56576 140.31389 14662 ft 377 kts 190°
2026-05-01 11:41 36.53988 140.30874 14418 ft 376 kts 190°
2026-05-01 11:41 36.51410 140.30360 14173 ft 375 kts 190°
2026-05-01 11:41 36.48840 140.29847 13934 ft 373 kts 190°
2026-05-01 11:42 36.46287 140.29318 13694 ft 371 kts 191°
2026-05-01 11:42 36.43872 140.28376 13452 ft 369 kts 206°
2026-05-01 11:42 36.41770 140.26613 13220 ft 364 kts 222°
2026-05-01 11:42 36.40213 140.24156 12955 ft 364 kts 239°
2026-05-01 11:43 36.39293 140.21232 12754 ft 365 kts 251°
2026-05-01 11:43 36.38677 140.18180 12507 ft 364 kts 254°
2026-05-01 11:43 36.38104 140.15145 12232 ft 358 kts 255°
2026-05-01 11:44 36.36960 140.09175 11931 ft 355 kts 254°
2026-05-01 11:44 36.36344 140.06169 11691 ft 362 kts 251°
2026-05-01 11:44 36.35302 140.03399 11495 ft 356 kts 234°
2026-05-01 11:44 36.33626 140.01269 11286 ft 339 kts 216°
2026-05-01 11:45 36.31560 140.00009 11072 ft 327 kts 200°
2026-05-01 11:45 36.29347 139.99616 10862 ft 318 kts 186°
2026-05-01 11:45 36.27180 139.99539 10629 ft 305 kts 187°
2026-05-01 11:45 36.25102 139.99439 10426 ft 293 kts 187°
2026-05-01 11:46 36.23099 139.99326 10186 ft 283 kts 188°
2026-05-01 11:46 36.21164 139.99208 9932 ft 275 kts 188°
2026-05-01 11:46 36.19265 139.99115 9773 ft 274 kts 185°
2026-05-01 11:46 36.17372 139.99376 9690 ft 280 kts 175°
2026-05-01 11:47 36.15472 139.99898 9454 ft 280 kts 173°
2026-05-01 11:47 36.13590 140.00479 9203 ft 281 kts 173°
2026-05-01 11:47 36.11688 140.01081 8940 ft 283 kts 173°
2026-05-01 11:47 36.09782 140.01692 8684 ft 283 kts 173°
2026-05-01 11:48 36.07875 140.02308 8424 ft 284 kts 173°
2026-05-01 11:48 36.05968 140.02925 8163 ft 284 kts 173°
2026-05-01 11:48 36.04060 140.03543 7897 ft 283 kts 173°
2026-05-01 11:48 36.02181 140.04152 7648 ft 284 kts 173°
2026-05-01 11:49 36.00268 140.04771 7491 ft 285 kts 173°
2026-05-01 11:49 35.98351 140.05392 7385 ft 285 kts 173°
2026-05-01 11:49 35.96439 140.06011 7245 ft 283 kts 173°
2026-05-01 11:49 35.94543 140.06626 7107 ft 281 kts 173°
2026-05-01 11:50 35.92655 140.07237 6989 ft 281 kts 173°
2026-05-01 11:50 35.90763 140.07848 6864 ft 281 kts 173°
2026-05-01 11:50 35.88871 140.08458 6746 ft 281 kts 173°
2026-05-01 11:50 35.86979 140.09068 6577 ft 282 kts 173°
2026-05-01 11:51 35.85109 140.09672 6335 ft 282 kts 173°
2026-05-01 11:51 35.83213 140.10284 6098 ft 282 kts 173°
2026-05-01 11:51 35.81319 140.10895 5865 ft 281 kts 173°
2026-05-01 11:51 35.79425 140.11506 5612 ft 281 kts 173°
2026-05-01 11:52 35.77537 140.12114 5353 ft 281 kts 173°
2026-05-01 11:52 35.75651 140.12722 5101 ft 279 kts 173°
2026-05-01 11:52 35.73773 140.13327 4929 ft 279 kts 173°
2026-05-01 11:52 35.71923 140.14086 4796 ft 285 kts 161°
2026-05-01 11:53 35.70290 140.15534 4671 ft 294 kts 143°
2026-05-01 11:53 35.68823 140.17244 4556 ft 295 kts 141°
2026-05-01 11:53 35.67361 140.18998 4434 ft 291 kts 141°
2026-05-01 11:53 35.65917 140.20631 4431 ft 271 kts 150°
2026-05-01 11:54 35.64370 140.21671 4431 ft 240 kts 169°
2026-05-01 11:54 35.62873 140.22365 4444 ft 221 kts 172°
2026-05-01 11:54 35.61441 140.22900 4443 ft 209 kts 182°
2026-05-01 11:54 35.60069 140.22857 4446 ft 189 kts 206°
2026-05-01 11:55 35.58955 140.22156 4418 ft 175 kts 227°
2026-05-01 11:55 35.58199 140.21052 4304 ft 170 kts 241°
2026-05-01 11:55 35.57602 140.19795 4188 ft 170 kts 245°
2026-05-01 11:55 35.57197 140.18423 4053 ft 174 kts 258°
2026-05-01 11:56 35.57022 140.16943 3957 ft 176 kts 264°
2026-05-01 11:56 35.56959 140.15434 3951 ft 178 kts 266°
2026-05-01 11:56 35.56952 140.13920 3954 ft 177 kts 267°
2026-05-01 11:56 35.56954 140.12416 3953 ft 177 kts 267°
2026-05-01 11:57 35.56955 140.10899 3955 ft 178 kts 267°
2026-05-01 11:57 35.56956 140.09896 3953 ft 176 kts 267°
2026-05-01 11:57 35.56957 140.07913 3951 ft 175 kts 267°
2026-05-01 11:57 35.56956 140.06418 3859 ft 175 kts 267°
2026-05-01 11:58 35.56956 140.04952 3657 ft 168 kts 267°
2026-05-01 11:58 35.56957 140.03553 3451 ft 160 kts 267°
2026-05-01 11:58 35.56960 140.00936 3039 ft 149 kts 266°
2026-05-01 11:59 35.56957 139.99648 2859 ft 153 kts 267°
2026-05-01 11:59 35.56955 139.98344 2662 ft 156 kts 267°
2026-05-01 11:59 35.56955 139.97013 2459 ft 156 kts 266°
2026-05-01 12:00 35.56954 139.94356 2038 ft 147 kts 268°
2026-05-01 12:00 35.56957 139.93143 1839 ft 139 kts 266°
2026-05-01 12:00 35.56958 139.90803 1464 ft 136 kts 263°
2026-05-01 12:01 35.56957 139.89657 1304 ft 136 kts 262°
2026-05-01 12:01 35.56956 139.88507 1109 ft 131 kts 261°
2026-05-01 12:01 35.56958 139.87450 924 ft 117 kts 261°
2026-05-01 12:01 35.56945 139.86468 844 ft 114 kts 259°
2026-05-01 12:02 35.56807 139.85534 853 ft 108 kts 245°
2026-05-01 12:02 35.56382 139.84807 756 ft 107 kts 219°
2026-05-01 12:02 35.55809 139.84206 601 ft 112 kts 220°
2026-05-01 12:02 35.55225 139.83558 457 ft 114 kts 224°
2026-05-01 12:03 35.54643 139.82885 287 ft 115 kts 226°
2026-05-01 12:03 35.54273 139.82451 173 ft 109 kts 222°
2026-05-01 12:03 35.53531 139.81619 53 ft 100 kts 223°
2026-05-01 12:03 35.53148 139.81188 51 ft 49 kts 222°
2026-05-01 12:04 35.52998 139.81003 47 ft 23 kts 230°
2026-05-01 12:04 35.52928 139.80837 50 ft 22 kts 248°
2026-05-01 12:04 35.52900 139.80751 48 ft 15 kts 249°
2026-05-01 12:04 35.52889 139.80628 49 ft 13 kts 291°
2026-05-01 12:05 35.52962 139.80553 48 ft 15 kts 329°
2026-05-01 12:05 35.53245 139.80351 45 ft 27 kts 328°
2026-05-01 12:05 35.53393 139.80247 41 ft 8 kts 330°
2026-05-01 12:06 35.53403 139.80240 40 ft 4 kts 330°
2026-05-01 12:06 35.53445 139.80210 38 ft 10 kts 330°
2026-05-01 12:06 35.53528 139.80151 35 ft 17 kts 330°
2026-05-01 12:06 35.53610 139.80092 31 ft 0 kts 330°
2026-05-01 12:07 35.53633 139.80077 29 ft 8 kts 330°
2026-05-01 12:07 35.53731 139.80007 27 ft 15 kts 330°
2026-05-01 12:07 35.53837 139.79931 29 ft 20 kts 330°
2026-05-01 12:07 35.53955 139.79848 29 ft 19 kts 330°
2026-05-01 12:08 35.54032 139.79794 27 ft 15 kts 330°
2026-05-01 12:08 35.54118 139.79735 27 ft 16 kts 330°
2026-05-01 12:08 35.54213 139.79667 27 ft 17 kts 330°
2026-05-01 12:08 35.54323 139.79588 27 ft 20 kts 329°
2026-05-01 12:09 35.54444 139.79502 29 ft 19 kts 330°
2026-05-01 12:09 35.54551 139.79424 31 ft 17 kts 320°
2026-05-01 12:09 35.54540 139.79291 37 ft 11 kts 239°
2026-05-01 12:09 35.54502 139.79214 40 ft 10 kts 239°
2026-05-01 12:10 35.54481 139.79169 42 ft 9 kts 239°
2026-05-01 12:10 35.54388 139.78975 44 ft 16 kts 239°
2026-05-01 12:10 35.54323 139.78839 36 ft 21 kts 239°
2026-05-01 12:11 35.54222 139.78568 30 ft 16 kts 290°
2026-05-01 12:11 35.54346 139.78462 30 ft 19 kts 329°
2026-05-01 12:11 35.54428 139.78405 30 ft 21 kts 330°
2026-05-01 12:12 35.54563 139.78310 30 ft 24 kts 329°
2026-05-01 12:12 35.54685 139.78223 30 ft 11 kts 330°
2026-05-01 12:12 35.54718 139.78205 30 ft 5 kts 350°
2026-05-01 12:12 35.54759 139.78225 29 ft 8 kts 44°
2026-05-01 12:13 35.54769 139.78243 30 ft 0 kts 55°
2026-05-01 12:13 35.54781 139.78263 30 ft 3 kts 54°
2026-05-01 12:13 35.54782 139.78265 30 ft 0 kts 54°